This is the latest recevied weather packets stored in our database for station/object KE5WTH-14. If no packets are shown the sender has not sent any weather packets the latest 1 day(s).
| Time | Temp. | Humidity | Pressure | Rain* | Wind** | Luminosity | Snow |
|---|---|---|---|---|---|---|---|
| 1778049098 | 13.89° C | 78% | 1010.2 hPa | 0 mm | 3.13 m/s, 0° | 0 W/m² | - |
| 1778049036 | 13.89° C | 79% | 1010.2 hPa | 0 mm | 2.68 m/s, 0° | 0 W/m² | - |
| 1778048975 | 13.89° C | 78% | 1010.3 hPa | 0 mm | 2.24 m/s, 0° | 0 W/m² | - |
| 1778048913 | 13.89° C | 78% | 1010.2 hPa | 0 mm | 2.68 m/s, 354° | 0 W/m² | - |
| 1778048853 | 13.89° C | 78% | 1010.3 hPa | 0 mm | 3.58 m/s, 0° | 0 W/m² | - |
| 1778048793 | 13.89° C | 78% | 1010.3 hPa | 0 mm | 3.58 m/s, 0° | 0 W/m² | - |
| 1778048734 | 13.89° C | 78% | 1010.2 hPa | 0 mm | 3.58 m/s, 353° | 0 W/m² | - |
| 1778048673 | 13.89° C | 78% | 1010.1 hPa | 0 mm | 4.02 m/s, 341° | 0 W/m² | - |
| 1778048613 | 13.89° C | 78% | 1010.2 hPa | 0 mm | 3.58 m/s, 0° | 0 W/m² | - |
| 1778048552 | 13.89° C | 78% | 1010.1 hPa | 0 mm | 3.13 m/s, 0° | 0 W/m² | - |
| 1778048494 | 13.89° C | 78% | 1010.2 hPa | 0 mm | 2.68 m/s, 0° | 0 W/m² | - |
| 1778048435 | 13.89° C | 78% | 1010.2 hPa | 0 mm | 2.24 m/s, 0° | 0 W/m² | - |
| 1778048369 | 13.89° C | 78% | 1010.2 hPa | 0 mm | 2.68 m/s, 357° | 0 W/m² | - |
| 1778048306 | 13.89° C | 78% | 1010.1 hPa | 0 mm | 3.13 m/s, 0° | 0 W/m² | - |
| 1778048246 | 13.89° C | 78% | 1010.1 hPa | 0 mm | 3.13 m/s, 0° | 0 W/m² | - |
| 1778048184 | 13.89° C | 78% | 1010.2 hPa | 0 mm | 3.58 m/s, 345° | 0 W/m² | - |
| 1778048122 | 13.89° C | 78% | 1010.2 hPa | 0 mm | 4.02 m/s, 0° | 0 W/m² | - |
| 1778048061 | 14.44° C | 78% | 1010.1 hPa | 0 mm | 3.58 m/s, 0° | 0 W/m² | - |
| 1778048001 | 14.44° C | 79% | 1010.2 hPa | 0 mm | 1.79 m/s, 340° | 0 W/m² | - |
| 1778047929 | 14.44° C | 79% | 1010.1 hPa | 0 mm | 1.79 m/s, 0° | 0 W/m² | - |
| 1778047865 | 13.89° C | 79% | 1010.1 hPa | 0 mm | 2.68 m/s, 11° | 0 W/m² | - |
| 1778047804 | 13.89° C | 79% | 1010.1 hPa | 0 mm | 2.68 m/s, 31° | 0 W/m² | - |
| 1778047746 | 13.89° C | 78% | 1010.2 hPa | 0 mm | 2.68 m/s, 0° | 0 W/m² | - |
| 1778047688 | 13.89° C | 78% | 1010.2 hPa | 0 mm | 3.13 m/s, 25° | 0 W/m² | - |
| 1778047625 | 13.89° C | 78% | 1010.2 hPa | 0 mm | 3.58 m/s, 357° | 0 W/m² | - |
* Rain latest hour (hover to see other rain measurements)
** Current wind speed in m/s (hover to see current wind gust speed)